Pagine meno recenti

Vengono mostrati sotto 250 risultati dal 1 al 250.

Vedi (precedenti 250 | successivi 250) (20 | 50 | 100 | 250 | 500).

  1. 21-40‏‎ (10:38, 9 lug 2016)
  2. Accettare l'invito in una gilda‏‎ (15:37, 25 ago 2016)
  3. Gestione dell'esercito‏‎ (16:15, 25 ago 2016)
  4. Menù dell'Inventario‏‎ (17:57, 26 ago 2016)
  5. Creare una gilda‏‎ (23:29, 26 ago 2016)
  6. Monete‏‎ (23:47, 26 ago 2016)
  7. Medaglie‏‎ (23:49, 26 ago 2016)
  8. Ricompense Contribuzioni‏‎ (15:20, 27 ago 2016)
  9. Pasquale‏‎ (16:53, 27 ago 2016)
  10. Primo Compleanno di Forge of Empires‏‎ (23:25, 27 ago 2016)
  11. Colombo‏‎ (10:39, 28 ago 2016)
  12. Come abbandonare una gilda‏‎ (12:09, 4 set 2016)
  13. Menu classifica‏‎ (12:52, 4 set 2016)
  14. Grattamare‏‎ (13:00, 4 set 2016)
  15. Sicurezza account‏‎ (13:01, 4 set 2016)
  16. Abitazione autosufficiente‏‎ (17:06, 4 set 2016)
  17. Atto finale‏‎ (17:42, 4 set 2016)
  18. Barra di stato (desktop)‏‎ (18:05, 4 set 2016)
  19. Cattedrale di S. Basilio‏‎ (14:11, 5 set 2016)
  20. Classifica delle Gilde‏‎ (15:14, 5 set 2016)
  21. Colpo singolo‏‎ (15:24, 5 set 2016)
  22. Barra sociale‏‎ (20:02, 20 set 2016)
  23. Tipologia unità‏‎ (08:48, 6 ott 2016)
  24. Identità Segreta‏‎ (17:50, 11 ott 2016)
  25. Grepolis‏‎ (22:16, 11 ott 2016)
  26. Morale‏‎ (22:31, 11 ott 2016)
  27. Tribal Wars 2‏‎ (22:37, 11 ott 2016)
  28. The West‏‎ (22:38, 11 ott 2016)
  29. Elvenar‏‎ (22:39, 11 ott 2016)
  30. Incoraggiamento‏‎ (23:05, 11 ott 2016)
  31. Sciame di droni‏‎ (18:08, 12 ott 2016)
  32. Cecchino Antimateria‏‎ (18:09, 12 ott 2016)
  33. Artiglieria missilistica‏‎ (18:10, 12 ott 2016)
  34. Elicottero d'attacco‏‎ (18:11, 12 ott 2016)
  35. Artiglieria lanciarazzi‏‎ (18:11, 12 ott 2016)
  36. Artiglieria Meccanizata‏‎ (18:24, 12 ott 2016)
  37. Carro da battaglia‏‎ (18:30, 12 ott 2016)
  38. Fanteria Meccanizzata‏‎ (18:34, 12 ott 2016)
  39. Carro Armato‏‎ (19:45, 12 ott 2016)
  40. Guardia Imperiale‏‎ (21:26, 12 ott 2016)
  41. Cavaliere corazzato‏‎ (21:29, 12 ott 2016)
  42. Mercenario‏‎ (22:14, 12 ott 2016)
  43. Lancia Macigni‏‎ (22:21, 12 ott 2016)
  44. Classifica‏‎ (22:30, 12 ott 2016)
  45. Top center mobile‏‎ (08:47, 13 ott 2016)
  46. Top left‏‎ (09:10, 13 ott 2016)
  47. Raccogli tutto‏‎ (09:18, 13 ott 2016)
  48. Offerte‏‎ (09:22, 13 ott 2016)
  49. Impostazioni‏‎ (09:25, 13 ott 2016)
  50. Menù principale‏‎ (09:43, 13 ott 2016)
  51. Menù di ricerca‏‎ (09:53, 13 ott 2016)
  52. Top right‏‎ (10:16, 13 ott 2016)
  53. Barra dei Punti Forge‏‎ (10:18, 13 ott 2016)
  54. Tribal Wars‏‎ (18:12, 13 ott 2016)
  55. Testata multipla‏‎ (08:02, 14 ott 2016)
  56. Ricarica‏‎ (08:05, 14 ott 2016)
  57. Tiro potente‏‎ (09:14, 21 ott 2016)
  58. Terreno‏‎ (22:10, 5 nov 2016)
  59. Corpo a corpo‏‎ (09:30, 5 dic 2016)
  60. Tiratore scelto‏‎ (10:40, 20 feb 2017)
  61. Basilica di S. Marco‏‎ (14:26, 23 feb 2017)
  62. Anguilla Idroelettrica‏‎ (13:14, 15 mar 2017)
  63. Scava trincee‏‎ (13:41, 15 mar 2017)
  64. Tecnologie‏‎ (15:28, 15 mar 2017)
  65. Contemporanea‏‎ (10:56, 18 mar 2017)
  66. Domani‏‎ (10:58, 18 mar 2017)
  67. Bronzo‏‎ (12:01, 18 mar 2017)
  68. Livelli 61-75‏‎ (23:44, 4 apr 2017)
  69. Livelli 21-40‏‎ (23:45, 4 apr 2017)
  70. Livelli 41-60‏‎ (23:46, 4 apr 2017)
  71. Livello di Gilda‏‎ (23:46, 4 apr 2017)
  72. Cassa di Potenziamenti‏‎ (17:16, 10 apr 2017)
  73. Cannoni a rotaia‏‎ (11:19, 17 mag 2017)
  74. Menu impostazioni‏‎ (15:10, 26 mag 2017)
  75. Parte destra del mobile‏‎ (15:55, 26 mag 2017)
  76. Veleno‏‎ (17:44, 27 lug 2017)
  77. Industriale‏‎ (22:00, 5 ago 2017)
  78. Statua della fenice‏‎ (22:12, 30 ago 2017)
  79. Alto medioevo‏‎ (10:54, 10 set 2017)
  80. Pieno medioevo‏‎ (10:59, 10 set 2017)
  81. Basso medioevo‏‎ (11:01, 10 set 2017)
  82. Coloniale‏‎ (11:02, 10 set 2017)
  83. Progressista‏‎ (11:06, 10 set 2017)
  84. Moderno‏‎ (11:08, 10 set 2017)
  85. Postmoderno‏‎ (11:10, 10 set 2017)
  86. Futuro‏‎ (11:16, 10 set 2017)
  87. Futuro Artico‏‎ (11:20, 10 set 2017)
  88. Frenesia‏‎ (15:42, 3 dic 2017)
  89. Consiglieri per le missioni‏‎ (22:02, 3 dic 2017)
  90. Diamanti‏‎ (22:07, 3 dic 2017)
  91. Felicità‏‎ (22:13, 3 dic 2017)
  92. Municipio - schermata‏‎ (20:44, 4 dic 2017)
  93. Marilyn Monroe‏‎ (22:03, 5 dic 2017)
  94. Top right mobile‏‎ (12:47, 9 dic 2017)
  95. Top left Mobile‏‎ (12:50, 9 dic 2017)
  96. Mondi di gioco‏‎ (12:56, 9 dic 2017)
  97. Messaggistica e Chat‏‎ (13:03, 9 dic 2017)
  98. Punti Forge‏‎ (13:11, 9 dic 2017)
  99. Classifica medaglie‏‎ (13:44, 9 dic 2017)
  100. Arthur Conan Doyle‏‎ (20:18, 10 dic 2017)
  101. La visita di Leonardo‏‎ (20:23, 10 dic 2017)
  102. Il Racconto dell'Eroe‏‎ (21:27, 10 dic 2017)
  103. Incidenti‏‎ (21:47, 10 dic 2017)
  104. Guerriero coraggioso‏‎ (21:52, 10 dic 2017)
  105. Barbaro Fromboliere‏‎ (21:52, 10 dic 2017)
  106. Cavaliere coraggioso‏‎ (21:52, 10 dic 2017)
  107. Mercato‏‎ (22:28, 11 dic 2017)
  108. Basi‏‎ (23:45, 11 dic 2017)
  109. Inventario‏‎ (23:52, 11 dic 2017)
  110. Esercito e battaglie‏‎ (22:47, 12 dic 2017)
  111. Interazioni Sociali‏‎ (22:48, 12 dic 2017)
  112. Spedizioni di Gilda‏‎ (22:52, 12 dic 2017)
  113. Gilda vs Gilda‏‎ (00:22, 13 dic 2017)
  114. Committenti‏‎ (00:27, 13 dic 2017)
  115. Materiali‏‎ (00:33, 13 dic 2017)
  116. Taverna degli amici‏‎ (18:58, 13 dic 2017)
  117. San Valentino‏‎ (19:01, 13 dic 2017)
  118. Evento Pasquale‏‎ (19:03, 13 dic 2017)
  119. Giorno di Maggio‏‎ (19:04, 13 dic 2017)
  120. Cavalleria pesante‏‎ (19:21, 13 dic 2017)
  121. 5° Anniversario di Forge of Empires‏‎ (19:33, 13 dic 2017)
  122. Martin Luther King‏‎ (19:34, 13 dic 2017)
  123. Anno Bisestile‏‎ (19:35, 13 dic 2017)
  124. Yuri Gagarin‏‎ (19:37, 13 dic 2017)
  125. Isadora Duncan‏‎ (19:37, 13 dic 2017)
  126. Maria Stuarda‏‎ (19:39, 13 dic 2017)
  127. Sissi‏‎ (19:39, 13 dic 2017)
  128. Fratelli Montgolfier‏‎ (19:40, 13 dic 2017)
  129. Tour de France‏‎ (19:40, 13 dic 2017)
  130. Albert Einstein‏‎ (19:42, 13 dic 2017)
  131. Shah Jahan‏‎ (19:43, 13 dic 2017)
  132. Galileo Galilei‏‎ (19:46, 13 dic 2017)
  133. Mahatma Gandhi‏‎ (19:47, 13 dic 2017)
  134. Rosa Parks‏‎ (19:48, 13 dic 2017)
  135. Gilde‏‎ (19:58, 14 dic 2017)
  136. Amministrazione Gilda‏‎ (19:59, 14 dic 2017)
  137. Permessi di gilda‏‎ (20:00, 14 dic 2017)
  138. Popolazione‏‎ (20:02, 14 dic 2017)
  139. Campionati delle Gilde‏‎ (20:04, 14 dic 2017)
  140. Glossario‏‎ (20:07, 14 dic 2017)
  141. Regolamento‏‎ (20:13, 14 dic 2017)
  142. Sicurezza‏‎ (20:14, 14 dic 2017)
  143. Beni Speciali‏‎ (20:17, 14 dic 2017)
  144. Promezio‏‎ (20:19, 14 dic 2017)
  145. FAQ‏‎ (20:22, 14 dic 2017)
  146. Basilica di S. Sofia‏‎ (21:05, 8 gen 2018)
  147. Oracolo di Delfi‏‎ (21:17, 8 gen 2018)
  148. Stormo‏‎ (21:24, 26 feb 2018)
  149. Sciame‏‎ (21:37, 26 feb 2018)
  150. Aliante‏‎ (21:38, 26 feb 2018)
  151. Futuro Oceanico‏‎ (20:58, 27 feb 2018)
  152. Abilità speciali‏‎ (21:03, 27 feb 2018)
  153. Esplosione‏‎ (21:04, 27 feb 2018)
  154. Fiato del Drago‏‎ (21:04, 27 feb 2018)
  155. Volare‏‎ (21:06, 27 feb 2018)
  156. Oricalco‏‎ (21:12, 27 feb 2018)
  157. La Galassia Blu‏‎ (21:58, 4 mar 2018)
  158. Napoleone Bonaparte‏‎ (20:37, 5 mar 2018)
  159. Evento di Primavera‏‎ (19:11, 26 mar 2018)
  160. Interfaccia‏‎ (21:03, 19 apr 2018)
  161. Mobile App‏‎ (21:17, 19 apr 2018)
  162. Applicazione Mobile‏‎ (21:18, 19 apr 2018)
  163. L'Universo‏‎ (21:20, 19 apr 2018)
  164. Cleopatra‏‎ (21:41, 19 apr 2018)
  165. Van Gogh‏‎ (20:19, 3 mag 2018)
  166. Sacajawea‏‎ (19:31, 19 mag 2018)
  167. Coppa di Calcio FoE‏‎ (20:53, 10 giu 2018)
  168. Carro armato a levitazione‏‎ (19:09, 12 lug 2018)
  169. Chiamata al Dovere‏‎ (21:51, 17 lug 2018)
  170. Cavalleria‏‎ (21:53, 17 lug 2018)
  171. Contatto!‏‎ (21:55, 17 lug 2018)
  172. Campo di forza‏‎ (21:56, 17 lug 2018)
  173. Schieramento rapido‏‎ (21:57, 17 lug 2018)
  174. Armatura reattiva‏‎ (21:58, 17 lug 2018)
  175. Nascosto‏‎ (21:59, 17 lug 2018)
  176. Campione‏‎ (22:04, 17 lug 2018)
  177. Bonus‏‎ (22:30, 17 lug 2018)
  178. Età del domani - Età del futuro virtuale‏‎ (23:01, 17 lug 2018)
  179. Tornei PvP‏‎ (23:05, 17 lug 2018)
  180. Industriale - Età Contemporanea‏‎ (23:06, 17 lug 2018)
  181. Bronzo - Età Coloniale‏‎ (23:06, 17 lug 2018)
  182. Municipio‏‎ (13:38, 18 lug 2018)
  183. Mappa Continentale‏‎ (13:44, 18 lug 2018)
  184. Costi sblocco difficoltà‏‎ (13:50, 18 lug 2018)
  185. Classifica giocatore‏‎ (13:51, 18 lug 2018)
  186. Beni‏‎ (16:13, 19 lug 2018)
  187. Edifici per i beni‏‎ (16:18, 19 lug 2018)
  188. Cimitero Antico‏‎ (19:17, 24 lug 2018)
  189. Palo di Maggio‏‎ (19:20, 24 lug 2018)
  190. Possente Palo di Maggio‏‎ (19:23, 24 lug 2018)
  191. Imponente Palo di Maggio‏‎ (19:25, 24 lug 2018)
  192. Fontana dell'Elefante‏‎ (19:36, 24 lug 2018)
  193. Pozzo dell'Accoglienza‏‎ (19:43, 24 lug 2018)
  194. Statua in Maschera‏‎ (10:47, 25 lug 2018)
  195. Statua in maschera da naso‏‎ (10:48, 25 lug 2018)
  196. Slitta con Renne‏‎ (10:51, 25 lug 2018)
  197. Statua d'ingresso Est/Ovest‏‎ (10:55, 25 lug 2018)
  198. Coppa del capocannoniere‏‎ (11:01, 25 lug 2018)
  199. Uomo Vitruviano‏‎ (11:06, 25 lug 2018)
  200. Cancello del Dio Sole‏‎ (11:10, 25 lug 2018)
  201. Premio d'Oro‏‎ (15:57, 25 lug 2018)
  202. Premio d'Argento‏‎ (15:58, 25 lug 2018)
  203. Premio di Bronzo‏‎ (15:59, 25 lug 2018)
  204. Premio di Pietra‏‎ (16:00, 25 lug 2018)
  205. Stagno Nishikigoi‏‎ (16:06, 25 lug 2018)
  206. Roccia di Sakura‏‎ (16:07, 25 lug 2018)
  207. Baobab Decorato‏‎ (16:14, 25 lug 2018)
  208. Parco Giochi del Bandar‏‎ (16:18, 25 lug 2018)
  209. Aro Titano‏‎ (16:20, 25 lug 2018)
  210. Giardino Chhatri‏‎ (16:22, 25 lug 2018)
  211. Albero dell'Amore‏‎ (16:24, 25 lug 2018)
  212. Grande Albero dell'Amore‏‎ (16:25, 25 lug 2018)
  213. Eterno Albero dell'amore‏‎ (16:27, 25 lug 2018)
  214. Ritiro del Campione‏‎ (16:41, 25 lug 2018)
  215. Ballo in Maschera‏‎ (10:53, 26 lug 2018)
  216. Mercato del Pontile della Gondola‏‎ (10:57, 26 lug 2018)
  217. Grande Fabbrica di dolciumi‏‎ (11:05, 26 lug 2018)
  218. Recinto delle renne‏‎ (11:06, 26 lug 2018)
  219. Enorme Fabbrica di dolciumi‏‎ (11:07, 26 lug 2018)
  220. Negozio Foeberge‏‎ (11:11, 26 lug 2018)
  221. Fattoria Terrazzata‏‎ (11:12, 26 lug 2018)
  222. Angolo dell'oratore‏‎ (18:45, 26 lug 2018)
  223. Villa Rinascimentale‏‎ (18:50, 26 lug 2018)
  224. Magione Rinascimentale‏‎ (18:51, 26 lug 2018)
  225. Casetta di Pan di Zenzero‏‎ (19:14, 26 lug 2018)
  226. Giardino dell'Obelisco‏‎ (19:15, 26 lug 2018)
  227. Santuario dell'Ispirazione‏‎ (19:18, 26 lug 2018)
  228. Santuario della Conoscenza‏‎ (19:19, 26 lug 2018)
  229. Piazza degli Scacchi‏‎ (19:22, 26 lug 2018)
  230. Guardia del Cielo Sacra‏‎ (19:24, 26 lug 2018)
  231. Casa stregata‏‎ (19:29, 26 lug 2018)
  232. Pilastro degli Eroi lvl 1‏‎ (19:39, 26 lug 2018)
  233. Pilastro degli Eroi lvl 2‏‎ (19:41, 26 lug 2018)
  234. Pilastro degli Eroi lvl 3‏‎ (19:42, 26 lug 2018)
  235. Pilastro degli Eroi lvl 4‏‎ (19:43, 26 lug 2018)
  236. Pilastro degli Eroi lvl 5‏‎ (19:44, 26 lug 2018)
  237. Pilastro degli Eroi lvl 6‏‎ (19:45, 26 lug 2018)
  238. Pilastro degli Eroi lvl 7‏‎ (19:46, 26 lug 2018)
  239. Tholos degli idoli‏‎ (18:31, 27 lug 2018)
  240. Pagoda ad un Piano‏‎ (18:32, 27 lug 2018)
  241. Zona Zen‏‎ (18:37, 27 lug 2018)
  242. Ingresso dell'Imperatore‏‎ (18:38, 27 lug 2018)
  243. Torre Orientale del Palazzo‏‎ (18:54, 27 lug 2018)
  244. Torre Occidentale del Palazzo‏‎ (18:55, 27 lug 2018)
  245. Chhatri Commemorativo‏‎ (18:56, 27 lug 2018)
  246. Ingresso della Fontana dell'Elefante‏‎ (18:58, 27 lug 2018)
  247. Tana delle tigri‏‎ (19:03, 27 lug 2018)
  248. Campo delle Guardie con Vessillo‏‎ (19:06, 27 lug 2018)
  249. Fontana della Giovinezza‏‎ (19:11, 27 lug 2018)
  250. Gong della Saggezza‏‎ (19:13, 27 lug 2018)

Vedi (precedenti 250 | successivi 250) (20 | 50 | 100 | 250 | 500).